This is the latest recevied weather packets stored in our database for station/object DL1GHN-6. If no packets are shown the sender has not sent any weather packets the latest 10 day(s).
| Time | Temp. | Humidity | Pressure | Rain* | Wind** | Luminosity | Snow |
|---|---|---|---|---|---|---|---|
| 1778154130 | 15° C | 71% | 1015.3 hPa | 0 mm | - | 320 W/m² | - |
| 1778153829 | 15.56° C | 68% | 1015.3 hPa | 0 mm | - | 341 W/m² | - |
| 1778153529 | 15.56° C | 67% | 1015.3 hPa | 0 mm | - | 341 W/m² | - |
| 1778153230 | 15.56° C | 67% | 1015.2 hPa | 0 mm | - | 343 W/m² | - |
| 1778152929 | 15.56° C | 69% | 1015.2 hPa | 0 mm | - | 376 W/m² | - |
| 1778152629 | 15.56° C | 68% | 1015.2 hPa | 0 mm | - | 476 W/m² | - |
| 1778152330 | 15.56° C | 72% | 1015.2 hPa | 0 mm | - | 485 W/m² | - |
| 1778152029 | 15° C | 72% | 1015.2 hPa | 0.25 mm | - | 478 W/m² | - |
| 1778151730 | 15° C | 75% | 1015.3 hPa | 0.25 mm | - | 501 W/m² | - |
| 1778151430 | 14.44° C | 73% | 1015.3 hPa | 0.25 mm | - | 403 W/m² | - |
| 1778151130 | 14.44° C | 74% | 1015.3 hPa | 0.25 mm | - | 309 W/m² | - |
| 1778150830 | 14.44° C | 75% | 1015.4 hPa | 0.25 mm | - | 325 W/m² | - |
| 1778150530 | 14.44° C | 73% | 1015.4 hPa | 0.25 mm | - | 418 W/m² | - |
| 1778150230 | 14.44° C | 72% | 1015.4 hPa | 0.25 mm | - | 471 W/m² | - |
| 1778149930 | 13.89° C | 73% | 1015.4 hPa | 0.25 mm | - | 436 W/m² | - |
| 1778149630 | 13.89° C | 77% | 1015.4 hPa | 0.25 mm | - | 290 W/m² | - |
| 1778149330 | 13.89° C | 74% | 1015.4 hPa | 0.25 mm | - | 288 W/m² | - |
| 1778149030 | 13.89° C | 75% | 1015.4 hPa | 0.25 mm | - | 246 W/m² | - |
| 1778148729 | 13.89° C | 76% | 1015.4 hPa | 0.25 mm | - | 334 W/m² | - |
| 1778148430 | 13.89° C | 77% | 1015.4 hPa | 0 mm | - | 381 W/m² | - |
| 1778148129 | 13.89° C | 76% | 1015.4 hPa | 0 mm | - | 362 W/m² | - |
| 1778147830 | 13.89° C | 80% | 1015.4 hPa | 0 mm | - | 534 W/m² | - |
| 1778147530 | 13.89° C | 78% | 1015.4 hPa | 0 mm | - | 336 W/m² | - |
| 1778147230 | 13.33° C | 78% | 1015.4 hPa | 0 mm | - | 322 W/m² | - |
| 1778146930 | 13.33° C | 79% | 1015.3 hPa | 0 mm | - | 359 W/m² | - |
* Rain latest hour (hover to see other rain measurements)
** Current wind speed in m/s (hover to see current wind gust speed)